{"data":{"norad_id":66038,"intl_designator":"2025-233F","name":"QIANFAN-96","alt_names":[],"object_type":"PAYLOAD","status":"ACTIVE","operator":null,"country":"PRC","launch_date":"2025-10-17","launch_site_code":"TAISC","launch_vehicle":null,"mission":null,"orbit_class":"UNKNOWN","rcs_meters":null,"size_class":null,"mass_kg":null,"dimensions":null,"purposes":[],"wikipedia_slug":null,"has_3d_model":false,"image_url":null,"decayed_at":null,"tle_current":{"epoch":"2026-05-25T03:16:56.493408Z","epoch_age_seconds":66392,"freshness":"FRESH","line1":"1 66038U 25233F   26145.13676497  .00000131  00000+0  18460-3 0  9995","line2":"2 66038  89.0022  45.5318 0002062  66.9050 293.2318 13.51006470 30062","mean_motion":13.5100647,"eccentricity":0.0002062,"inclination_deg":89.0022,"raan_deg":45.5318,"arg_perigee_deg":66.905,"mean_anomaly_deg":293.2318,"bstar":0.0001846,"rev_number":3006,"period_min":106.5872023544,"perigee_km":1067.0223017558,"apogee_km":1070.0933186956,"semimajor_km":7446.6948102257,"source":"CELESTRAK","updated_at":"2026-05-25T13:38:05.920115Z"}}}